Погода в Питермарицбурге

ЮАР     29°37′06″S   30°21′15″E
темп.,
°C
ветер,
м/с
пор.,
м/с
влажн.,
%
обл.,
%
осадки,
мм/ч
давл.,
гПа
погр.,
м
16 января, вс
вс1623:00+18зюз01100100 5.7 1015103
02:00+17ссз1199100 11.8 101342
05:00+17сз1199100 5.4 101434
08:00+17всв01100100 10.3 101457
11:00+17с1299100 7.3 1014143
14:00+18в1296100 9.3 1013292
17:00+18в1298100 2.0 101276
20:00+17ссв1199100 9.3 101452
17 января, пн
пн1723:00+16св009996 2.1 101529
02:00+16св0199100 2.1 101443
05:00+16в0110099 0.1 101542
08:00+17вюв0199100 0.2 1017106
11:00+19в118795 0.1 1017495
14:00+20вюв349367 2.3 1015643
17:00+20вюв269241 1.8 1016418
20:00+16юв119969 2.6 101915
18 января, вт
вт1823:00+16ссв1197100 0.3 101930
02:00+14сз11987 0.3 101716
05:00+13зсз21970 0.0 101722
08:00+18ссз258643 0.0 1017557
11:00+24ссз35540 0.0 10141115
14:00+27ссз22480 0.0 10111522
17:00+27с23600 0.0 1009880
20:00+18зсз1193100 0.0 101212
19 января, ср
ср1923:00+17ю2796100 0.6 1016223
02:00+17ююз1399100 1.0 1017221
05:00+16в13100100 0.3 1018233
08:00+18вюв129699 0.6 1020355
11:00+19юв3490100 1.0 1019697
14:00+19юв3681100 1.8 1019855
17:00+16юв1589100 0.1 1020621
20:00+16з0193100 0.1 102084
20 января, чт
чт2023:00+16з129191 0.1 102187
02:00+14зсз119663 0.1 102012
05:00+16зсз119078 0.1 101940
08:00+20с12740 0.1 1018540
11:00+26в22520 0.0 10161422
14:00+27вюв32484 0.0 10151394
17:00+23вюв447213 0.0 1015798
20:00+17в009946 0.0 101912